Simultaneous Nadir Overpasses (SNOs) Predictions

Prediction of SNOs between AQUA and NPP Satellite Orbit:

Table of predicted SNOs for the next 14.0 days since TLE Epoch: 6/25/2022
Index Date (AQUA) Time (AQUA) Lat,Lon (AQUA) SZA (AQUA ) Date (NPP) Time (NPP) Lat,Lon (NPP) SZA (NPP ) Distance(km) Time Diff (sec)
1 06/25/2022 21:02:55 77.99, 111.66 71.83 06/25/2022 21:02:34 77.99, 111.60 71.86 1.54 21
2 06/25/2022 21:52:10 -78.50, -78.22 108.85 06/25/2022 21:53:07 -78.49, -78.33 108.86 2.67 57
3 06/28/2022 12:29:25 -78.02, 60.18 108.09 06/28/2022 12:28:46 -78.03, 60.24 108.07 1.52 39
4 06/28/2022 13:18:40 78.48,-129.95 71.32 06/28/2022 13:19:19 78.47,-129.98 71.29 0.70 39
5 07/01/2022 03:56:00 77.80, 7.56 72.38 07/01/2022 03:55:04 77.80, 7.54 72.43 0.69 56
6 07/01/2022 04:45:15 -78.32, 177.63 108.31 07/01/2022 04:45:37 -78.31, 177.55 108.30 2.03 22
7 07/03/2022 19:22:33 -77.72, -44.43 107.30 07/03/2022 19:21:20 -77.72, -44.44 107.24 0.17 73
8 07/03/2022 20:11:47 78.22, 125.51 72.06 07/03/2022 20:11:52 78.21, 125.41 72.07 2.37 5
9 07/06/2022 11:38:18 -78.20, 73.83 107.67 07/06/2022 11:38:06 -78.20, 73.83 107.66 0.15 12
10 07/06/2022 12:27:33 78.64,-116.27 71.75 07/06/2022 12:28:39 78.63,-116.35 71.71 1.90 66



Historial Predications of SNOs between AQUA and NPP
